COSMOS 2378 [-]

Last updated on July 6, 2021, 3:40 p.m. UTC

1 26818U 01023A   21187.05225981  .00000067  00000-0  55367-4 0  9995
2 26818  82.9287 120.8850 0034135  40.8907 319.4795 13.73956856  6749
UTC
Height (km)
Latitude
Longitude
Inclination
Orbital Period
UTC large
Height (km)
Speed (km/s)
/
Latitude / Longitude
Inclination (degrees)
Orbital Period (minutes)
Azimuth
Elevation
Range (km)
Doppler Factor
iOS Compass Heading
iOS Angle